Showing default

ORBCOMM FM 18, 25414

Orbit data source: Space-Track

ORBCOMM FM 18, 25414 is a payload satellite owned by Orbcomm (US) in LEO that was launched on Sun, 02 Aug 1998 UTC via a PEGASUS XL/HAPS launch vehicle from the Pegasus Launch, Eastern Range Air Space (ERAS). Payload-class satellites include a variety of spacecraft equipped with specific instruments for various scientific and technological missions. These include communications satellites like Starlink; space stations such as the ISS; scientific satellites like the Hubble; Earth observation satellites from companies like Planet Labs, Umbra, and HawkEye 360; GPS; miniature CubeSats for education and research; and military/defense satellites.

Loading next visibility...
Identifier
25414, 1998-046B
Orbit
LEO
Country
Flag of USUS / ORB
Related business
Manufacturer
OSC-Germantown
Mission
Non-operational Commercial Communications
Bus & Motor
MICROSTAR, Unknown motor
Mass
42 kg wet, 42 kg dry
Launch date (UTC)
1998-08-02 (28 years ago)
Launch vehicle
PEGASUS XL/HAPS
Launch site
Pegasus Launch, Eastern Range Air Space (ERAS)
Object type
Payload
Rocket body
Debris
Shape & HBR
Cyl + 2 Pan, 4.2 m
Radar Cross Section
1.484 m², Medium (>0.1 m² and < 1m²)

Expand to show TLE details & history
Last TLE update: 1 day ago

TLE from 1 day ago
0 ORBCOMM FM 18
1 25414U 98046B   26037.32769032  .00001979  00000-0  67618-3 0  9990
2 25414  44.9914 143.0842 0002829  12.0372 348.0544 14.39355435437977
Epoch: 2026-02-06T07:51Z
TLE epoch observation values (Epoch: 2026-02-06T07:51:52.443Z)
Latitude
-0.00001°
Longitude
-111.35147°
Altitude
758.651 km
Speed
7.478 km/s
True Right ascension
09h 32m 20s
True Declination
0° 00' 00"
Sunlit
Object was in full shadow at epoch
Visualization orbit readout
Latitude
Unknown
Longitude
Unknown
Altitude
Unknown
Speed
Unknown
Apparent Right ascension
Unknown
Apparent Declination
Unknown
Sunlit
N/A
Visualization observer readout
Local Sidereal Time
09:34:31
Azimuth
Unknown
Elevation
Unknown
Doppler factor
Unknown
Orbital elements
Apogee altitude
764.197 km
Perigee altitude
760.157 km
Semi-major axis
7,140.314 km
Eccentricity
0.00028
Inclination
44.9914°
RAAN
143.0842°
Arg. of periapsis
12.0372°
True anomaly
348.04769°
Mean anomaly
348.0544°
Eccentric anomaly
348.05104°
Mean motion
3.59722 °/min
Orbital period
100.08 mins
BSTAR
0.00067618
Loading maneuver chart data...
Computing Atmospheric mass density...

Documentation

Showing up to 5 results
|